User: anonymous   Login
Location: Lobstick
(53.6000°N, 115.1667°W)
Time: 09:37:05
(UTC+00:00)
Language:

ZACube-1 - Orbit

View from above orbital plane
View from above orbital plane
View from above satellite
View from above satellite

Ground track
Ground track

The orbit data is extracted from the following two-line orbital elements,

1 39417U 13066B   23341.85336763  .00003197  00000-0  35577-3 0  9994
2 39417  97.7097 297.8355 0054995  76.0061 284.7262 14.86711982542982
Epoch (UTC): 07 December 2023 20:28:50
Eccentricity: 0.0054995
inclination: 97.7097°
perigee height: 570 km
apogee height: 646 km
right ascension of ascending node: 297.8355°
argument of perigee: 76.0061°
revolutions per day: 14.86711982
mean anomaly at epoch: 284.7262°
orbit number at epoch: 54298

The dashed part of the orbit path shows where the satellite is in the earth's shadow,  

DLR